Flag for Isle of Man Weather past 2 weeks in Douglas, Isle of Man

Now
46 °F

Passing clouds.


Feels Like: 39 °F
Forecast: 51 / 56 °F
Wind: 21 mph from Northwest

Location: Isle Of Man / Ronaldsway Airport

Current Time: Oct 21, 2014 at 7:54:15 PM

Latest Report: Oct 21, 2014 at 6:50 PM


Visibility: N/A

Pressure: 30.01 "Hg

Humidity: 76%

Dew point: 39 °F

Location of DouglasLocation

Historic Weather in Douglas — Graph

°F

Douglas temperature yesterday

Maximum temperature yesterday: 57 °F (at 3:50 PM)
Minimum temperature yesterday: 54 °F (at 1:50 AM)
Average temperature yesterday: 56 °F

Past Weeks' High & Low Weather Summary

 TemperatureHumidityPressure
High63 °F (Oct 18, 11:50 AM)100% (Oct 10, 7:50 AM)30.01 "Hg (Oct 10, 7:50 AM)
Low43 °F (Oct 11, 6:50 AM)54% (Oct 21, 4:50 PM)29.09 "Hg (Oct 8, 4:20 PM)
Average54 °F83%29.59 "Hg
* Reported Oct 6 6:20 PM — Oct 21 6:50 PM, Douglas, Weather by CustomWeather, © 2014

Note: Actual official high and low records may vary slightly from our data, if they occured in-between our weather recording intervals... More about our weather records

Advertising

Douglas weather history for previous 24 hours

 ConditionsComfort  
Time TempWeatherWind HumidityBarometerVisibility
6:50 PM
Oct 21
46 °FPassing clouds.21 mph76%30.01 "HgN/A
6:20 PM48 °FPassing clouds.22 mph71%29.98 "HgN/A
5:50 PM48 °FPassing clouds.26 mph66%29.95 "HgN/A
5:20 PM50 °FScattered clouds.26 mph62%29.92 "HgN/A
4:50 PM50 °FPassing clouds.30 mph54%29.89 "HgN/A
4:20 PM50 °FPassing clouds.32 mph62%29.86 "HgN/A
3:50 PM50 °FSprinkles. Partly sunny.30 mph67%29.83 "HgN/A
3:20 PM52 °FScattered clouds.25 mph58%29.83 "HgN/A
2:50 PM50 °FScattered clouds.29 mph62%29.80 "HgN/A
2:20 PM52 °FScattered clouds.29 mph58%29.77 "HgN/A
1:50 PM52 °FScattered clouds.25 mph62%29.74 "HgN/A
1:20 PM50 °FPassing clouds.26 mph71%29.71 "HgN/A
12:50 PM52 °FPartly sunny.31 mph58%29.68 "HgN/A
12:20 PM50 °FSprinkles. Partly sunny.29 mph67%29.68 "HgN/A
11:50 AM52 °FPassing clouds.26 mph62%29.65 "HgN/A
11:20 AM52 °FPassing clouds.30 mph58%29.62 "HgN/A
10:20 AM52 °FPassing clouds.30 mph67%29.56 "HgN/A
9:50 AM50 °FPassing clouds.32 mph67%29.53 "HgN/A
9:20 AM50 °FPassing clouds.29 mph67%29.53 "HgN/A
8:50 AM50 °FPassing clouds.31 mph67%29.50 "HgN/A
8:20 AM50 °FPassing clouds.30 mph67%29.47 "HgN/A
7:50 AM50 °FPassing clouds.33 mph71%29.47 "HgN/A
7:20 AM50 °FPassing clouds.30 mph71%29.45 "HgN/A
6:50 AM50 °FPassing clouds.28 mph71%29.42 "HgN/A
6:20 AM52 °FPassing clouds.28 mph67%29.39 "HgN/A
5:50 AM52 °FPassing clouds.31 mph67%29.39 "HgN/A
5:20 AM54 °FPassing clouds.32 mph72%29.33 "HgN/A
4:50 AM54 °FPartly cloudy.33 mph82%29.33 "HgN/A
3:50 AM57 °FPartly cloudy.30 mph88%29.27 "HgN/A
2:50 AM57 °FLight rain. Partly cloudy.36 mph94%29.30 "HgN/A
1:50 AM57 °FMostly cloudy.37 mph88%29.36 "HgN/A
12:50 AM55 °FRain. Mostly cloudy.33 mph100%29.42 "Hg2 mi
11:50 PM
Oct 20
57 °FLight rain. Passing clouds.30 mph88%29.47 "HgN/A
10:50 PM57 °FPassing clouds.33 mph88%29.53 "HgN/A
9:50 PM57 °FPassing clouds.28 mph88%29.59 "HgN/A
9:20 PM57 °FPassing clouds.25 mph88%29.62 "HgN/A
8:50 PM57 °FPassing clouds.25 mph88%29.65 "HgN/A
8:20 PM57 °FPassing clouds.25 mph88%29.65 "HgN/A
7:50 PM57 °FPassing clouds.25 mph82%29.68 "HgN/A
7:20 PM57 °FPassing clouds.21 mph82%29.71 "HgN/A
Weather by CustomWeather, © 2014

See weather overviewHow to use our weather pages